PSLV R/B (44862 NORAD) Tracking and Keplerian Element Data

This shows tracking and keplerian element data for the satellite.

Feedback or suggestion? Click here.




ElementValue
Catalog44862
NamePSLV R/B
Epoch Orbit440
Epoch Day9.53818765
Epoch Year2020
RAAN321.255
Inclination36.9807
Eccentricity0.0039089
Argument of Perigee333.358
Mean Anonmoly26.5154
Mean Motion15.07014816
Decay Rate3.24E-06
L11 44862U 19089L 20009.53818765 .00000324 00000-0 26698-4 0 9999
L22 44862 36.9807 321.2550 0039089 333.3580 26.5154 15.07014816 4405

Live tracking and technical data element details for PSLV R/B (NORAD 44862). PSLV R/B can be tracked NOW for your location showing map with azimuth and elevation plus other details from your city location.

Track the satellite on the map from your city or location and see movement details for azimuth, elevation, latitude, longitude, range, height, and movement on the map or in text.







IsCatalogInMostPopularTable: catalog: 44862, numindb: 8
Update: records affected: 1



GetName: 44862 PSLV R/B

Hit Count: updated at: Sat, 18 Jan 2020 17:37:53 GMT